Theta_e
350 355 362 360 360 361 357 359 358 358 359 359 359 359 358 360 360 361 361 359 359 359 359 357 358 359 360 360 359 359 358 359 359 360 360 361 361 360 358 360 361 356 357
348 354 362 361 359 359 356 358 357 359 357 356 356 355 356 356 356 356 358 359 359 358 359 359 358 358 359 359 358 358 357 357 356 357 358 358 358 360 357 359 359 356 357
345 352 357 362 360 359 359 358 357 354 353 353 352 352 353 353 352 353 354 357 357 358 357 358 358 357 358 359 358 358 356 354 354 354 357 351 352 357 356 358 357 356 356
347 348 356 361 363 359 360 358 355 352 350 349 349 348 348 349 350 350 352 353 354 354 357 357 357 356 356 356 359 357 353 353 354 356 352 351 350 356 354 354 354 355 354
344 350 358 363 362 360 358 356 354 350 349 347 346 347 347 348 348 348 349 349 348 352 353 355 356 357 356 356 357 355 354 355 356 354 351 350 348 353 354 353 352 353 353
343 354 363 364 363 359 357 355 352 350 349 348 346 346 345 344 344 343 346 345 344 346 348 349 351 352 356 355 357 354 354 355 354 350 349 351 350 354 352 352 354 351 350
344 351 357 364 361 358 355 353 352 350 350 348 344 344 344 343 343 341 341 342 341 341 344 346 347 349 355 356 354 353 353 355 347 347 347 346 347 354 354 351 349 349 349
344 349 353 362 359 357 354 352 351 349 347 345 344 343 343 342 340 339 338 339 338 338 338 340 343 346 348 354 353 351 351 354 347 344 344 346 349 350 351 352 350 348 348
344 343 349 355 355 358 355 353 352 350 346 345 343 342 342 340 339 337 337 336 336 335 335 336 338 340 343 346 348 347 348 350 343 341 341 344 351 350 351 350 350 350 348
336 337 343 349 351 348 346 355 352 349 345 344 341 340 340 338 336 335 334 333 332 332 331 330 331 333 336 337 337 336 339 344 340 337 336 339 347 348 351 351 350 351 350
332 332 331 345 346 346 343 347 349 347 344 341 338 338 336 327 327 326 331 330 329 328 326 325 323 321 327 330 329 328 336 332 334 330 329 338 341 346 346 348 348 348 349
329 330 331 340 344 343 343 341 338 337 332 328 328 326 325 322 324 325 326 327 325 322 320 318 316 318 321 317 316 325 320 325 327 323 324 331 335 339 339 340 342 342 344
329 330 331 330 341 340 338 338 334 331 327 324 320 318 316 320 319 317 315 314 311 317 312 314 310 309 308 310 309 310 312 313 319 318 322 325 328 332 334 334 334 336 338
328 330 331 331 331 335 337 335 331 327 324 319 315 313 314 314 313 313 312 311 309 309 306 306 306 307 306 304 301 302 304 305 310 313 316 321 323 326 329 329 330 331 333
326 329 332 331 330 331 333 331 330 323 319 313 311 311 313 312 309 309 308 308 308 307 305 305 304 304 302 302 302 301 301 301 302 311 309 317 317 320 322 323 324 326 327
325 327 332 333 333 329 329 329 328 322 313 311 312 311 312 312 310 309 308 308 307 306 306 305 303 303 302 301 302 302 301 301 302 303 308 309 315 315 316 318 319 320 322
324 325 329 332 334 333 328 328 327 322 316 312 312 311 311 312 310 309 308 307 307 306 305 303 301 302 302 303 300 301 302 301 302 301 305 307 309 314 314 313 314 315 317
317 320 324 332 334 334 330 326 325 321 315 312 311 311 311 313 312 309 308 308 308 306 305 304 303 302 301 301 300 301 301 302 301 300 303 304 305 306 311 310 310 311 312
315 315 318 325 332 333 333 326 323 320 316 313 311 311 310 312 312 310 309 308 307 306 305 305 304 303 302 302 302 300 301 301 301 303 301 303 304 304 304 310 309 311 311
314 313 313 317 329 332 332 328 321 319 316 314 312 311 311 311 311 309 309 308 307 307 305 304 302 302 302 301 303 301 299 300 301 301 299 303 303 304 304 304 303 305 313
313 314 313 315 317 326 330 327 319 315 313 313 312 311 310 310 310 309 309 308 307 306 305 304 302 301 300 300 298 299 300 299 299 300 301 300 301 302 302 303 303 303 303
309 311 312 314 314 315 327 328 325 318 315 314 313 312 311 311 310 309 308 307 306 306 305 304 302 300 301 301 296 296 293 297 297 298 300 299 298 300 300 301 300 300 301
307 308 310 311 313 314 314 325 321 318 315 313 313 313 312 311 310 310 308 307 306 306 304 303 303 302 298 299 298 296 292 291 294 297 296 298 297 298 298 299 300 301 300
304 308 309 310 311 313 313 313 320 320 316 315 314 314 311 311 310 310 308 307 306 305 304 304 305 302 301 298 297 300 295 294 291 290 296 296 297 297 296 298 298 299 299
305 307 308 309 309 311 312 312 312 318 320 317 315 312 312 311 310 309 308 307 306 306 304 304 302 302 301 299 298 296 295 295 294 292 290 293 296 296 297 297 297 298 299
305 306 306 307 308 310 310 310 310 311 318 318 314 312 311 310 310 309 308 307 306 306 304 304 302 301 300 299 299 298 297 295 294 293 291 291 291 294 295 296 297 298 299
Wind_Speed
9 9 10 9 8 9 9 9 10 11 13 15 15 15 15 15 17 17 14 13 12 13 12 11 13 13 11 12 11 11 11 10 9 11 12 12 11 12 12 7 14 11 15
12 11 11 9 10 10 10 10 10 12 14 13 13 13 13 15 15 16 15 16 12 12 12 12 12 12 12 11 12 11 9 7 7 8 10 13 11 12 13 13 13 12 13
10 12 10 10 10 11 9 11 12 13 13 12 13 13 13 13 14 14 13 13 14 14 11 11 12 12 11 9 10 10 7 6 6 3 7 6 7 12 12 12 11 11 11
12 13 12 12 10 11 12 13 13 14 13 12 12 12 12 13 13 13 12 13 14 12 14 11 11 10 10 10 10 9 6 6 6 5 9 7 10 11 11 11 10 10 9
8 10 15 14 12 13 13 13 13 14 12 11 10 10 11 12 12 12 12 12 12 11 11 13 13 13 9 9 8 8 8 9 10 11 11 10 6 10 10 9 8 9 10
8 14 14 15 15 15 13 13 13 13 12 12 11 11 11 11 12 11 11 11 11 12 10 9 10 10 10 7 9 7 8 11 11 10 9 11 7 10 9 7 7 7 6
10 14 12 14 16 16 14 13 13 12 12 12 11 10 11 10 11 11 10 10 10 11 12 11 9 9 10 9 10 8 8 10 10 8 7 8 6 10 9 7 5 4 4
10 15 13 14 13 14 14 14 13 13 12 11 11 10 11 10 10 10 9 9 10 10 10 10 11 10 9 11 10 8 9 10 11 7 8 7 5 7 8 7 4 3 2
10 8 13 12 11 12 12 13 13 13 13 12 11 10 11 11 9 9 9 8 9 9 9 9 9 10 10 9 9 7 7 8 8 5 8 5 12 9 6 5 5 5 2
8 9 13 15 13 9 6 12 14 13 12 12 11 11 12 11 10 9 10 8 8 8 8 7 7 8 8 8 6 5 6 8 8 8 7 6 10 12 15 10 8 8 6
7 8 8 15 14 12 11 9 12 13 12 11 11 12 11 6 6 8 9 8 7 7 6 6 4 1 2 5 4 2 5 2 4 7 5 12 8 11 11 12 12 12 12
8 8 8 12 15 12 11 12 7 7 5 5 6 7 5 4 5 9 8 8 7 6 6 4 1 3 3 2 1 4 3 2 6 8 5 9 8 8 9 11 11 12 11
9 7 8 8 15 14 9 10 6 6 5 6 8 8 7 6 5 5 4 4 4 6 3 4 1 4 4 2 2 2 3 4 5 5 7 9 8 8 9 10 10 10 10
10 11 10 9 8 11 8 10 9 8 8 6 6 9 5 4 5 6 5 5 5 3 3 2 3 4 3 1 2 3 5 3 4 4 6 9 7 7 8 9 9 9 11
9 10 10 9 7 8 9 7 8 7 6 6 6 6 6 6 6 5 5 5 4 3 3 3 3 3 1 3 4 4 4 4 5 4 3 10 7 7 7 8 8 8 9
8 9 13 13 10 7 8 8 7 5 6 6 6 6 8 6 5 5 5 5 5 4 4 4 4 2 2 2 3 1 2 2 4 5 4 5 8 7 7 7 7 7 8
9 9 12 14 14 11 10 9 7 5 5 5 6 8 8 7 7 7 5 5 5 4 6 3 3 2 3 0 3 3 3 0 2 4 5 4 4 6 7 6 6 6 7
8 8 8 12 15 14 8 6 6 5 5 5 5 5 8 7 8 7 5 5 5 5 4 4 3 2 2 2 2 3 4 4 4 4 5 3 4 3 4 4 4 3 3
11 8 9 7 13 14 11 6 7 8 6 5 5 5 8 8 8 6 6 6 7 5 4 4 2 3 3 3 3 4 3 4 5 3 6 6 6 5 2 4 1 4 4
20 3 5 5 10 12 9 6 5 6 5 6 5 6 9 6 8 6 5 6 6 5 5 4 4 3 3 3 1 3 3 4 3 3 4 4 5 6 6 4 3 4 7
25 24 23 23 11 5 7 7 4 5 4 4 5 8 8 7 8 7 6 6 7 6 6 6 4 6 2 2 2 4 4 5 5 5 4 4 4 6 6 5 4 3 2
20 22 23 21 19 18 5 7 8 7 5 5 6 7 9 11 10 8 7 7 7 6 7 7 5 3 4 5 4 1 2 4 2 4 4 4 3 2 3 4 4 3 2
17 18 20 20 18 16 18 7 3 2 3 4 7 8 8 9 10 11 8 7 7 6 6 6 6 7 5 3 5 4 0 4 1 2 4 4 4 1 3 2 2 5 4
12 10 12 15 16 16 17 13 12 10 10 8 9 8 6 9 11 11 9 8 9 5 7 7 6 5 4 5 1 3 2 3 2 2 3 2 3 3 1 3 3 3 3
14 8 10 14 9 10 13 16 10 12 10 6 7 9 11 9 11 13 11 10 9 8 7 8 7 7 5 4 4 3 2 0 1 3 3 4 3 2 1 1 3 3 4
13 8 7 12 9 9 9 10 16 15 11 10 7 8 8 8 9 12 13 12 10 10 9 9 7 9 7 5 3 4 4 4 4 3 3 3 3 4 2 4 2 3 4
Wind_Direction
134 132 133 126 117 119 110 93 89 80 74 65 64 62 62 64 63 60 57 59 54 62 66 60 63 60 60 71 73 72 69 72 82 90 89 73 66 67 61 72 93 92 86
132 138 139 128 126 120 120 109 101 90 79 75 73 67 62 58 59 58 55 56 58 59 70 67 65 61 63 75 72 73 71 78 88 104 108 94 72 66 65 62 81 85 84
132 124 146 137 136 128 132 119 105 94 88 85 81 75 71 67 63 58 57 58 55 53 66 71 69 63 55 65 84 81 70 52 56 59 142 99 78 69 68 74 80 83 87
136 151 136 146 139 134 124 124 117 106 98 90 87 83 77 72 71 67 67 64 58 51 60 71 71 70 60 49 78 78 60 35 4 47 71 73 79 71 79 80 84 82 85
152 126 134 151 147 139 135 130 127 117 113 103 97 95 87 83 74 70 74 73 62 60 62 56 61 60 65 62 76 69 39 14 11 64 65 56 54 62 73 80 87 83 78
143 117 136 150 153 144 145 140 136 130 127 117 107 102 96 89 84 73 65 70 68 66 66 66 63 59 50 74 85 61 32 15 81 57 54 58 40 58 72 76 79 85 83
145 125 134 148 152 149 149 148 142 140 132 130 123 116 106 98 90 82 74 70 66 67 68 67 67 60 43 99 79 51 29 11 74 77 64 59 20 48 54 73 72 84 87
145 142 139 149 154 155 154 157 153 148 144 138 133 125 119 109 99 92 86 79 72 65 65 68 67 67 67 67 73 48 37 40 79 78 56 46 20 30 50 53 62 55 73
146 138 147 154 157 159 167 169 163 162 154 149 142 134 128 118 111 103 96 89 81 77 68 64 65 69 71 59 48 32 21 42 95 66 73 26 34 49 41 44 55 51 54
167 161 163 152 157 163 169 177 170 170 165 158 151 145 137 131 128 120 112 99 90 83 82 74 63 65 74 76 65 21 343 321 96 73 59 28 36 39 41 51 65 58 54
179 173 202 151 164 173 167 176 176 174 170 165 157 157 152 156 162 97 109 113 105 97 92 88 82 76 91 102 78 349 312 348 51 84 55 33 28 51 48 54 49 47 42
184 196 188 166 167 182 174 152 170 176 169 177 171 179 202 148 128 121 128 128 123 124 127 121 165 290 263 196 39 345 32 3 87 90 70 51 43 52 60 57 48 47 43
192 183 198 207 169 176 174 154 177 173 188 196 182 188 209 120 131 131 148 160 172 192 211 187 115 28 15 60 15 79 2 35 84 90 86 67 48 52 59 53 50 50 47
192 180 183 215 180 172 164 161 176 178 192 192 179 190 143 136 180 161 171 174 178 178 153 120 118 180 207 12 63 80 84 37 83 99 98 83 64 60 58 53 49 44 47
201 176 180 196 221 183 171 170 175 182 174 171 169 195 151 165 181 166 151 156 183 159 160 147 172 168 122 58 36 33 63 73 66 120 123 107 87 68 62 55 49 49 48
231 192 183 189 211 195 185 171 183 167 169 170 171 186 169 172 172 158 162 165 163 179 162 170 163 137 172 156 133 87 28 101 111 112 139 137 127 105 75 55 47 44 47
230 222 189 186 184 221 196 178 175 168 167 175 173 174 183 172 178 164 166 166 179 167 174 162 137 129 104 253 202 182 159 71 150 145 128 160 148 132 111 79 50 40 39
236 235 220 187 183 196 213 186 164 170 164 178 168 170 185 191 182 164 171 171 172 155 144 147 158 198 175 182 248 225 166 173 217 153 129 105 120 151 138 103 63 34 24
205 223 231 190 179 187 200 179 165 176 172 178 172 180 189 188 190 165 170 172 154 149 157 168 168 160 185 206 236 254 219 186 197 184 165 173 179 163 160 306 301 300 230
357 220 228 232 184 189 188 180 166 172 178 176 187 185 186 181 187 175 172 168 153 153 171 175 161 193 176 188 263 301 245 203 178 217 199 197 180 174 177 196 245 278 214
20 13 12 5 325 185 192 184 166 180 186 184 190 197 187 179 186 185 178 167 158 164 180 176 176 172 199 198 81 296 267 219 193 202 197 225 244 186 177 196 218 224 258
14 10 2 0 356 350 289 195 198 173 178 176 182 200 192 187 187 183 174 175 166 159 177 180 170 163 183 179 167 142 303 335 284 219 191 185 200 186 163 231 225 225 245
12 8 356 347 346 346 343 303 187 177 155 152 190 208 203 186 187 189 179 171 169 163 178 178 174 164 177 207 185 159 123 219 155 257 193 179 153 193 249 204 293 259 246
352 3 353 338 336 338 338 342 306 216 208 198 191 200 195 189 187 191 185 179 174 167 176 178 171 172 152 179 178 226 203 155 157 345 339 179 187 212 264 276 275 296 287
349 353 345 328 325 326 327 327 319 296 239 210 193 185 195 201 193 188 191 186 179 178 174 170 174 171 178 161 158 154 209 212 187 131 263 305 354 308 306 265 281 275 268
328 331 335 314 327 315 305 311 315 303 275 231 210 198 191 195 204 193 195 193 186 180 179 177 173 172 176 183 178 165 166 162 198 181 202 254 223 280 304 295 290 285 272